Weather in Pomchishche

Russia / Kostroma Oblast     58°16′35″N   42°58′58″E
temp.,
°C
wind,
m/s
gust,
m/s
humid.,
%
clouds,
%
prec.,
mm/h
press.,
hPa
HPBL,
m
13 may, thu
thu1300:00+13se269382 0.1 102397
03:00+12ese229229 0.1 102334
06:00+14ese248494 0.0 1022117
09:00+18se387354 0.0 1022468
12:00+23se595017 0.0 10211868
15:00+24se5846100 0.0 10191984
18:00+22ese41056100 0.0 10161130
21:00+15ese21093100 2.6 1016318
14 may, fri
fri1400:00+14s1498100 1.8 1016180
03:00+12wsw229799 1.8 101846
06:00+13wsw23895 0.0 1018123
09:00+18ssw24671 0.0 1019621
12:00+21ssw4647100 0.0 10191803
15:00+21ssw3654100 0.0 10181843
18:00+19ssw25705 0.3 1018496
21:00+15se22875 0.4 101711
15 may, sat
sat1500:00+13ese24925 0.0 101772
03:00+13ese2794100 0.6 1016161
06:00+15ese31093100 0.3 1015305
09:00+20sse3681100 0.3 1014482
12:00+25se575745 0.0 10111168
15:00+26s610535 0.1 10101650
18:00+20ssw51279100 2.9 1010754
21:00+15s24989 4.3 101091
16 may, sun
sun1600:00+15ssw412952 0.6 1011560
03:00+14ssw4119742 0.6 1011607
06:00+14ssw4119450 0.0 1012588
09:00+17sw597599 0.0 1013933
12:00+21sw585596 0.0 10131760
15:00+21wsw58534 0.3 10131687
18:00+18wsw387335 1.0 1013578
21:00+14wsw229133 1.1 101427
17 may, mon
mon1700:00+12wsw22936 0.0 101525
03:00+11wsw11940 0.0 101611
06:00+14sw11871 0.0 1017101
09:00+19sw2366100 0.0 1018760
12:00+22ssw2253100 0.0 10171370
15:00+23ssw2248100 0.0 10171703
18:00+21sse1165100 0.0 101725
21:00+16sse228456 0.0 101715